Location: *
(46.1333°S, 161.2167°W)
Time: 03:58:24
(UTC+00:00)

Meteor 2-8 Rocket - Pass Details

Date: 15 July 2020
Orbit: 936 x 958 km, 82.5° (Epoch: 10 August)

Event Time Altitude Azimuth Distance (km) Brightness Sun altitude
Rises 16:37:40 0° 192° (SSW) 3,646 7.3 -17.5°
Reaches altitude 10° 16:40:10 10° 194° (SSW) 2,698 6.6 -17.0°
Maximum altitude 16:46:18 69° 275° (W) 1,024 4.4 -16.0°
Drops below altitude 10° 16:52:23 10° 356° (N) 2,680 7.0 -15.0°
Sets 16:54:53 0° 359° (N) 3,621 7.7 -14.6°
